SCP
0 0 0 0 0 0 0 0 0 0 0 0 0 0 0 0 0 0 0 0 0 0 0 0 0 0 1 1 2 2 2 2 2 2 2 1 1 1 1 1 1 0 0 0
0 0 0 0 0 0 0 0 0 0 0 0 0 0 0 0 0 0 0 0 0 0 0 0 0 0 0 1 1 2 2 2 2 2 2 2 2 1 1 1 1 0 0 0
0 0 0 0 0 0 0 0 0 0 0 0 0 0 0 0 0 0 0 0 0 0 0 0 0 0 0 0 0 1 1 2 2 2 2 2 2 2 2 1 1 1 0 0
0 0 0 0 0 0 0 0 0 0 0 0 0 0 0 0 0 0 0 0 0 0 0 0 0 0 0 0 0 0 1 2 2 2 2 2 2 2 2 2 1 1 1 0
0 0 0 0 0 0 0 0 0 0 0 0 0 0 0 0 0 0 0 0 0 0 0 0 0 0 0 0 0 0 1 1 2 2 2 2 2 2 2 2 1 1 1 1
0 0 0 0 0 0 0 0 0 0 0 0 0 0 0 0 0 0 0 0 0 0 0 0 0 0 0 0 0 0 0 1 1 1 2 2 2 2 2 1 1 1 1 1
0 0 0 0 0 0 0 0 0 0 0 0 0 0 0 0 0 0 0 0 0 0 0 0 0 0 0 0 0 0 0 0 1 1 1 2 2 2 1 1 1 1 1 1
0 0 0 0 0 0 0 0 0 0 0 0 0 0 0 0 0 0 0 0 0 0 0 0 0 0 0 0 0 0 0 0 0 1 1 1 2 2 2 1 1 1 1 1
0 0 0 0 0 0 0 0 0 0 0 0 0 0 0 0 0 0 0 0 0 0 0 0 0 0 0 0 0 0 0 0 0 0 1 1 2 2 2 2 1 1 1 1
0 0 0 0 0 0 0 0 0 0 0 0 0 0 0 0 0 0 0 0 0 0 0 0 0 0 0 0 0 0 0 0 0 0 1 1 2 2 2 2 2 1 1 1
0 0 0 0 0 0 0 0 0 0 0 0 0 0 0 0 0 0 0 0 0 0 0 0 0 0 0 0 0 0 0 0 0 0 0 1 1 2 2 2 2 2 1 1
0 0 0 0 0 0 0 0 0 0 0 0 0 0 0 0 0 0 0 0 0 0 0 0 0 0 0 0 0 0 0 0 0 0 0 0 1 1 2 2 2 2 2 2
0 0 0 0 0 0 0 0 0 0 0 0 0 0 0 0 0 0 0 0 0 0 0 0 0 0 0 0 0 0 0 0 0 0 0 0 0 1 2 2 2 2 2 2
0 0 0 0 0 0 0 0 0 0 0 0 0 0 0 0 0 0 0 0 0 0 0 0 0 0 0 0 0 0 0 0 0 0 0 0 0 0 1 1 2 2 2 2
0 0 0 0 0 0 0 0 0 0 0 0 0 0 0 0 0 0 0 0 0 0 0 0 0 0 0 0 0 0 0 0 0 0 0 0 0 0 0 1 1 2 2 2
0 0 0 0 0 0 0 0 0 0 0 0 0 0 0 0 0 0 0 0 0 0 0 0 0 0 0 0 0 0 0 0 0 0 0 0 0 0 0 0 1 1 1 1
0 0 0 0 0 0 0 0 0 0 0 0 0 0 0 0 0 0 0 0 0 0 0 0 0 0 0 0 0 0 0 0 0 0 0 0 0 0 0 0 1 1 1 1
0 0 0 0 0 0 0 0 0 0 0 0 0 0 0 0 0 0 0 0 0 0 0 0 0 0 0 0 0 0 0 0 0 0 0 0 0 0 0 0 0 0 0 0
0 0 0 0 0 0 0 0 0 0 0 0 0 0 0 0 0 0 0 0 0 0 0 0 0 0 0 0 0 0 0 0 0 0 0 0 0 0 0 0 0 0 0 0
0 0 0 0 0 0 0 0 0 0 0 0 0 0 0 0 0 0 0 0 0 0 0 0 0 0 0 0 0 0 0 0 0 0 0 0 0 0 0 0 0 0 0 0
0 0 0 0 0 0 0 0 0 0 0 0 0 0 0 0 0 0 0 0 0 0 0 0 0 0 0 0 0 0 0 0 0 0 0 0 0 0 0 0 0 0 0 0
0 0 0 0 0 0 0 0 0 0 0 0 0 0 0 0 0 0 0 0 0 0 0 0 0 0 0 0 0 0 0 0 0 0 0 0 0 0 0 0 0 0 0 0
0 0 0 0 0 0 0 0 0 0 0 0 0 0 0 0 0 0 0 0 0 0 0 0 0 0 0 0 0 0 0 0 0 0 0 0 0 0 0 0 0 0 0 0
0 0 0 0 0 0 0 0 0 0 0 0 0 0 0 0 0 0 0 0 0 0 0 0 0 0 0 0 0 0 0 0 0 0 0 0 0 0 0 0 0 0 0 0
0 0 0 0 0 0 0 0 0 0 0 0 0 0 0 0 0 0 0 0 0 0 0 0 0 0 0 0 0 0 0 0 0 0 0 0 0 0 0 0 0 0 0 0
0 0 0 0 0 0 0 0 0 0 0 0 0 0 0 0 0 0 0 0 0 0 0 0 0 0 0 0 0 0 0 0 0 0 0 0 0 0 0 0 0 0 0 0
Wind_Speed
1 2 3 4 5 4 4 6 7 5 2 5 9 9 7 4 4 3 3 2 2 2 1 1 1 1 1 1 1 0 0 1 1 0 0 1 1 0 0 0 0 0 0 1
3 2 3 2 3 4 5 7 7 4 2 5 7 9 6 5 3 2 2 1 1 2 2 2 2 2 1 1 1 1 1 1 1 1 1 1 1 1 0 0 0 0 1 1
3 0 1 2 2 3 5 6 6 5 4 4 6 8 7 5 3 1 1 1 1 2 2 3 3 2 2 2 2 2 2 1 1 1 1 1 1 1 1 1 1 1 1 1
1 0 1 2 2 3 5 3 4 5 5 4 3 6 4 5 3 2 1 1 2 2 2 2 3 3 3 3 2 2 2 2 1 1 1 2 2 2 2 1 1 1 2 2
1 0 1 2 2 3 2 2 4 5 6 6 5 7 4 2 4 3 1 1 2 2 2 3 3 4 3 3 3 3 3 3 2 2 2 2 3 2 2 1 2 2 2 2
1 0 1 1 1 1 0 1 1 3 4 8 6 8 5 2 2 1 0 1 2 3 3 3 4 4 4 4 3 3 3 3 3 3 2 3 3 3 2 2 2 2 2 2
1 1 1 1 0 1 1 2 3 4 5 5 2 6 5 1 1 1 2 2 3 3 3 4 5 5 5 5 5 4 4 4 4 4 3 3 4 4 3 3 3 3 2 2
2 2 1 1 2 2 2 3 4 5 5 3 3 7 1 2 1 1 1 2 3 4 4 4 5 5 5 6 6 5 5 4 4 4 4 4 4 3 3 4 4 4 3 4
2 2 1 2 2 1 2 2 3 3 3 6 6 3 2 1 0 1 1 2 3 4 5 5 6 6 6 6 6 6 5 5 5 5 5 4 4 4 4 4 4 4 4 4
2 4 1 1 1 2 2 1 2 3 5 7 6 5 3 2 2 1 2 2 4 4 5 5 5 6 6 6 6 6 6 5 5 5 5 4 5 5 5 4 5 5 5 5
1 3 2 1 3 2 2 2 3 3 4 6 6 3 2 1 1 2 2 3 4 5 5 5 6 5 6 6 6 7 7 6 6 6 6 5 5 5 5 4 5 5 5 5
0 2 3 2 1 2 1 2 4 4 4 4 5 4 4 1 1 1 2 3 4 5 5 5 5 5 6 6 7 7 7 7 7 6 6 6 6 6 6 5 5 6 6 6
2 2 3 3 3 1 2 2 2 2 3 5 7 5 4 1 1 2 3 3 4 5 5 5 5 5 6 6 7 7 7 8 8 7 7 7 6 6 6 6 6 6 6 6
1 3 5 7 4 1 3 3 4 4 5 7 10 10 5 5 5 4 4 4 4 4 5 6 6 6 6 6 7 7 8 8 8 7 7 7 7 7 7 7 7 6 6 6
1 3 3 5 4 3 5 6 6 8 9 9 8 9 10 8 6 5 4 4 4 5 5 6 7 7 7 7 7 8 8 8 8 8 7 8 8 7 7 7 7 7 6 6
1 3 2 4 4 3 6 8 8 9 9 10 11 12 7 5 3 3 3 4 5 5 6 7 7 7 8 8 8 8 8 8 8 8 8 8 8 8 7 7 7 7 7 6
2 3 3 5 3 5 8 6 7 6 6 6 8 7 3 3 4 4 4 5 5 5 6 7 7 7 8 8 8 9 9 8 8 8 8 8 8 8 8 8 7 7 7 7
3 3 2 3 3 7 1 2 3 5 5 6 7 6 4 5 5 5 5 5 4 5 6 7 7 7 8 8 8 8 8 8 8 7 8 8 8 8 8 8 7 7 7 6
2 4 3 3 4 8 2 2 2 4 5 4 5 6 5 5 5 3 1 2 3 4 5 6 6 7 7 8 8 8 8 8 7 8 8 8 8 8 8 8 8 7 6 6
2 1 3 3 5 6 1 2 1 2 4 1 2 4 4 4 5 3 2 3 4 5 5 5 6 7 7 7 7 7 8 8 8 9 9 9 8 8 8 8 8 7 6 6
2 3 4 6 6 6 1 1 2 4 2 1 2 4 3 4 5 5 4 5 5 5 5 6 6 6 6 7 7 7 8 8 9 9 9 9 8 8 8 8 7 6 6 6
5 5 5 4 6 5 3 4 4 3 3 3 3 4 4 5 5 5 5 5 5 6 6 6 5 6 6 6 6 7 8 9 9 9 9 9 8 7 6 7 6 6 6 6
4 3 2 5 3 2 3 3 2 2 3 4 4 4 4 5 6 6 5 5 5 5 5 5 5 6 6 6 6 7 8 9 9 8 8 8 8 7 6 6 6 5 5 4
3 1 3 4 5 3 3 3 3 3 4 5 5 5 4 5 6 6 5 5 5 5 5 5 5 6 7 7 7 7 8 8 8 8 8 8 7 7 6 5 5 4 4 4
2 4 3 5 4 4 3 3 4 4 4 4 4 4 5 5 5 5 5 5 5 5 5 5 5 6 7 8 8 8 8 8 8 8 8 7 7 6 6 5 4 5 4 5
3 4 4 4 3 3 3 2 3 4 4 4 4 5 4 4 5 4 4 4 5 5 5 5 6 7 7 8 8 8 7 7 7 7 7 6 5 5 5 5 5 6 6 8
Wind_Direction
84 174 202 216 223 250 242 243 254 259 266 250 248 256 256 237 234 243 248 248 259 283 342 15 5 9 5 359 349 317 9 34 39 47 206 214 220 205 129 94 68 53 359 321
164 207 242 242 222 225 235 246 257 264 269 262 265 266 256 238 226 238 253 262 292 321 4 15 16 18 2 352 335 338 318 322 315 304 297 275 268 239 238 216 160 327 291 297
187 109 210 186 202 230 242 248 261 281 296 245 274 256 220 201 194 222 287 315 331 342 343 355 358 9 3 352 340 324 322 308 313 320 332 316 244 215 205 216 236 259 261 253
191 23 191 204 233 256 249 254 264 264 266 254 256 275 204 203 209 213 283 332 334 337 342 350 352 355 1 354 350 342 339 329 326 317 295 279 258 248 253 251 248 251 247 249
162 327 248 232 247 251 293 326 270 257 252 261 230 256 243 178 235 241 259 304 339 344 343 352 352 351 355 1 1 354 351 348 345 326 303 283 282 279 269 261 248 251 245 246
100 61 332 339 15 223 341 276 258 231 235 247 230 237 255 185 245 244 61 355 352 356 358 360 1 1 4 5 6 359 354 350 347 337 310 288 280 287 277 265 262 259 254 249
206 148 82 0 240 162 270 259 254 232 225 246 174 236 258 63 7 326 324 346 357 357 359 1 1 1 2 1 357 353 347 346 342 334 324 302 278 268 265 264 258 262 259 256
252 233 124 2 327 276 245 255 259 271 268 277 212 239 236 67 24 358 342 337 351 358 356 354 354 353 353 352 351 348 347 340 336 330 322 315 291 270 270 269 265 260 259 259
287 268 52 13 5 284 207 212 326 294 297 274 248 250 267 136 261 346 347 353 351 352 351 349 350 352 351 347 347 343 337 334 333 326 318 313 306 280 272 274 267 262 264 264
276 273 298 343 172 46 330 167 195 224 260 265 258 252 258 216 243 273 298 328 339 345 345 347 347 346 345 342 340 340 339 331 328 324 319 314 309 295 281 272 271 267 263 261
263 252 276 251 230 232 165 190 224 231 260 268 275 270 41 284 261 277 308 332 332 333 335 338 340 341 339 341 342 340 338 333 329 325 319 315 308 300 289 280 277 276 270 263
266 258 265 250 64 359 259 238 208 237 240 244 271 278 72 9 349 308 313 334 334 333 333 333 335 338 340 342 341 338 335 332 328 324 320 316 310 303 294 287 284 280 273 266
174 212 267 229 182 149 224 231 235 246 245 237 246 257 92 71 354 329 318 330 336 337 335 334 337 339 338 336 335 334 332 328 325 323 319 316 312 307 301 296 290 282 274 267
181 220 240 268 308 191 229 230 202 199 232 244 244 266 278 299 304 308 313 320 326 331 334 333 334 335 335 334 332 330 329 327 325 322 318 315 313 307 301 297 293 286 279 270
204 240 233 265 282 266 261 251 214 216 237 249 264 266 285 299 302 300 301 310 318 325 329 330 331 331 333 333 331 330 328 326 324 319 317 314 311 306 301 298 296 291 284 277
231 239 227 257 248 268 274 263 240 237 244 252 269 276 290 302 302 289 295 304 311 318 323 326 327 328 330 330 327 326 325 324 321 317 316 316 314 311 307 303 298 292 284 279
194 201 240 266 282 283 268 250 210 213 222 228 247 268 316 303 294 296 297 295 298 308 315 319 321 322 322 323 322 321 320 320 318 315 316 315 314 311 308 305 299 293 287 280
187 192 231 280 292 255 302 64 199 216 240 238 263 285 295 297 305 299 288 283 294 308 315 318 320 318 319 320 321 320 319 319 319 318 318 318 316 311 308 304 299 294 290 282
216 203 216 235 261 270 248 177 183 227 267 236 251 275 293 312 297 278 305 305 311 317 318 316 317 316 317 319 322 321 320 322 324 322 319 317 313 309 307 305 301 295 290 285
87 188 218 216 248 260 338 94 307 237 259 152 235 273 300 309 287 322 20 336 325 323 319 318 321 319 318 323 324 321 322 325 325 321 316 313 310 306 304 302 298 294 287 282
177 191 217 228 245 265 23 114 195 227 315 10 264 278 280 274 288 319 323 318 318 318 318 319 318 316 317 319 321 320 322 323 320 317 315 313 311 307 302 302 300 295 290 285
196 193 205 209 228 251 113 147 206 283 344 303 292 288 281 281 295 302 305 310 316 318 320 320 318 316 317 320 319 318 319 318 317 316 315 314 313 310 308 308 307 302 296 290
215 222 209 208 234 38 154 201 273 312 288 297 297 294 287 284 288 297 301 304 310 311 311 313 311 312 317 321 319 314 315 318 317 316 316 314 313 311 310 309 309 308 304 295
209 217 217 245 256 249 234 253 276 277 280 291 291 289 283 280 286 292 296 302 306 308 309 311 311 312 316 321 318 311 313 316 316 316 315 314 313 313 314 310 308 309 310 306
234 180 209 242 270 284 253 244 271 282 286 293 295 289 281 277 282 288 291 296 300 305 309 309 308 308 310 315 314 315 316 316 315 314 314 314 313 313 314 312 309 306 302 303
200 198 211 236 226 240 280 311 290 281 283 286 290 293 291 277 279 287 289 293 298 302 305 305 305 305 308 311 311 315 316 315 314 315 317 316 315 315 312 311 311 310 306 312